Location: Crescent
(42.8242°N, 73.7329°W)
Time: 20:30:37
(UTC+00:00)

SR - Pass Details

Date: 17 February 2026
Orbit: 573 x 848 km, 66.7° (Epoch: 6 March)

Event Time Altitude Azimuth Distance (km) Brightness Sun altitude
Rises 17:17:21 0° 336° (NNW) 3,054 ? 35.3°
Reaches altitude 10° 17:19:51 10° 347° (NNW) 2,182 ? 35.3°
Maximum altitude 17:24:17 31° 50° (NE) 1,290 ? 35.3°
Drops below altitude 10° 17:29:00 10° 112° (ESE) 2,332 ? 35.2°
Sets 17:31:45 0° 122° (ESE) 3,299 ? 35.1°
